Flag for U.S.A. Weather past 2 weeks in Anaheim, California, U.S.A.

Now
83 °F

Sunny.


Feels Like: 84 °F
Forecast: 67 / 85 °F
Wind: 7 mph from North

Location: Fullerton Municipal Airport

Current Time: Aug 2, 2015 at 4:23:45 PM

Latest Report: Aug 2, 2015 at 3:53 PM


Visibility: 10 mi

Pressure: 29.83 "Hg

Humidity: 53%

Dew point: 64 °F

Location of AnaheimLocation

Historic Weather in Anaheim — Graph

°F

Anaheim temperature yesterday

Maximum temperature yesterday: 82 °F (at 12:53 PM)
Minimum temperature yesterday: 71 °F (at 12:53 AM)
Average temperature yesterday: 75 °F

Past Weeks' High & Low Weather Summary

 TemperatureHumidityPressure
High90 °F (Jul 19, 10:53 AM)91% (Jul 18, 8:53 PM)30.07 "Hg (Jul 18, 8:53 PM)
Low68 °F (Jul 18, 5:53 PM)30% (Jul 25, 12:53 PM)29.81 "Hg (Jul 28, 5:53 PM)
Average76 °F69%29.93 "Hg
* Reported Jul 18 2:53 PM — Aug 2 2:53 PM, Anaheim, Weather by CustomWeather, © 2015

Note: Actual official high and low records may vary slightly from our data, if they occured in-between our weather recording intervals... More about our weather records

Advertising

Anaheim weather history for previous 24 hours

 ConditionsComfort  
Time TempWeatherWind HumidityBarometerVisibility
2:53 PM
Sun, Aug 2
83 °FSunny.9 mph53%29.85 "Hg10 mi
1:53 PM84 °FSunny.3 mph51%29.86 "Hg10 mi
12:53 PM82 °FSunny.3 mph55%29.88 "Hg10 mi
11:53 AM80 °FPassing clouds.3 mph58%29.90 "Hg10 mi
10:53 AM76 °FScattered clouds.6 mph67%29.90 "Hg10 mi
9:53 AM74 °FOvercast.No wind71%29.91 "Hg9 mi
8:53 AM72 °FOvercast.No wind76%29.91 "Hg9 mi
7:53 AM71 °FOvercast.6 mph78%29.90 "Hg9 mi
6:53 AM70 °FOvercast.No wind81%29.89 "Hg9 mi
5:53 AM70 °FOvercast.No wind84%29.87 "Hg10 mi
4:53 AM70 °FOvercast.No wind84%29.87 "Hg10 mi
3:53 AM70 °FOvercast.No wind84%29.87 "Hg10 mi
2:53 AM70 °FOvercast.No wind84%29.88 "Hg10 mi
1:53 AM70 °FOvercast.5 mph84%29.88 "Hg10 mi
12:53 AM72 °FClear.No wind76%29.89 "Hg10 mi
11:53 PM
Sat, Aug 1
72 °FClear.No wind76%29.90 "Hg10 mi
10:53 PM72 °FClear.No wind76%29.91 "Hg10 mi
9:53 PM73 °FClear.5 mph76%29.90 "Hg10 mi
8:53 PM74 °FClear.No wind74%29.89 "Hg10 mi
7:53 PM76 °FSunny.6 mph62%29.87 "Hg10 mi
6:53 PM78 °FSunny.8 mph56%29.87 "Hg10 mi
5:53 PM79 °FSunny.9 mph58%29.86 "Hg10 mi
4:53 PM81 °FSunny.8 mph54%29.87 "Hg10 mi
Weather by CustomWeather, © 2015

See weather overviewHow to use our weather pages